Location: Phoenix
(33.4480°N, 112.0730°W)
Time: 01:00:38
(UTC-07:00)

Cosmos 1470 Rocket - Visible Passes

Search period start: 22 October 2014 00:00
Search period end: 01 November 2014 00:00
Orbit: 606 x 635 km, 82.5° (Epoch: 20 October)

Date Brightness Start Highest point End Pass type
(mag) Time Alt. Az. Time Alt. Az. Time Alt. Az.
22 Oct 5.4 04:29:24 10° SSE 04:33:14 30° E 04:37:07 10° NNE visible
22 Oct 5.0 06:08:11 10° WSW 06:11:09 18° WNW 06:14:08 10° NNW visible
23 Oct 4.0 04:46:36 10° S 04:50:56 63° E 04:55:20 10° NNE visible
24 Oct 3.5 05:04:22 10° SSW 05:08:44 63° W 05:13:09 10° N visible
25 Oct 6.2 03:48:32 17° E 03:49:02 17° E 03:51:55 10° NE visible
25 Oct 4.3 05:25:55 29° W 05:26:37 31° WNW 05:30:34 10° NNW visible
26 Oct 5.6 04:08:33 23° NE 04:08:33 23° NE 04:10:40 10° NNE visible
26 Oct 5.3 05:45:51 14° NW 05:45:51 14° NW 05:47:21 10° NW visible
27 Oct 5.8 04:27:49 16° NNE 04:27:49 16° NNE 04:28:48 10° NNE visible
